STARLINK-32893, 62897

Orbit data source: Space-Track

STARLINK-32893, 62897 is a payload satellite owned by SpaceX/Seattle (US) in LEO that was launched on Tue, 04 Feb 2025 UTC via an FALCON 9 launch vehicle from the Air Force Eastern Test Range (AFETR). Payload-class satellites include a variety of spacecraft equipped with specific instruments for various scientific and technological missions. These include communications satellites like Starlink; space stations such as the ISS; scientific satellites like the Hubble; Earth observation satellites from companies like Planet Labs, Umbra, and HawkEye 360; GPS; miniature CubeSats for education and research; and military/defense satellites.

Loading next visibility...
Identifier
62897, 2025-024U
Orbit
LEO
Country
Flag of USUS
Related business
Manufacturer
SpaceX/Seattle
Mission
Operational Commercial Communications
Bus & Motor
STARLINK V2M, Unknown motor
Mass
730 kg wet, ~700 kg dry
Launch date (UTC)
2025-02-04 (1 year ago)
Launch vehicle
FALCON 9
Launch site
Air Force Eastern Test Range (AFETR)
Object type
Payload
Rocket body
Debris
Shape & HBR
Box + 2 Pan, 17.7 m
Radar Cross Section
33.884 m², Large (>1 m²)

Expand to show TLE details & history
Last TLE update: 18 hours ago

TLE from 18 hours ago
0 STARLINK-32893
1 62897U 25024U   26093.62611502  .00021206  00000-0  77848-3 0  9996
2 62897  42.9963 184.1915 0002382 254.4129 105.6460 15.27555227 66081
Epoch: 2026-04-03T15:01Z
TLE epoch observation values (Epoch: 2026-04-03T15:01:36.337Z)
Latitude
-0.00001°
Longitude
126.83254°
Altitude
483.339 km
Speed
7.625 km/s
True Right ascension
12h 16m 45s
True Declination
0° 00' 00"
Sunlit
Object was in full shadow at epoch
Visualization orbit readout
Latitude
Unknown
Longitude
Unknown
Altitude
Unknown
Speed
Unknown
Apparent Right ascension
Unknown
Apparent Declination
Unknown
Sunlit
N/A
Visualization observer readout
Local Sidereal Time
14:25:27
Azimuth
Unknown
Elevation
Unknown
Doppler factor
Unknown
Orbital elements
Apogee altitude
486.704 km
Perigee altitude
483.434 km
Semi-major axis
6,863.206 km
Eccentricity
0.00024
Inclination
42.9963°
RAAN
184.1915°
Arg. of periapsis
254.4129°
True anomaly
105.67228°
Mean anomaly
105.646°
Eccentric anomaly
105.65914°
Mean motion
3.81727 °/min
Orbital period
94.31 mins
BSTAR
0.00077848
Loading maneuver chart data...
Computing Atmospheric mass density...
Loading historical data...
Loading historical data...
Loading historical data...
Loading historical data...
Loading historical data...
Loading historical data...
Loading historical data...

Documentation

Showing up to 5 results
|